Temperature
24 23 23 23 25 26 28 29 29 29 28 27 27 27 26 25 24 22 21 20 20 19 20 19 19 19 19 19 19 19 19 19 19 19 18 18 18 19 19 19 19 18 18 18 18 18 18 18 18
24 23 24 25 26 27 28 29 29 29 28 27 27 26 25 24 23 21 21 20 20 19 19 19 19 19 19 19 19 19 19 19 19 19 18 18 18 18 18 18 18 18 18 18 18 18 18 18 18
24 24 26 27 28 28 28 29 29 29 28 28 27 25 24 23 22 21 21 20 20 19 19 20 19 19 19 19 19 19 19 19 19 19 19 18 18 18 18 18 18 18 18 18 18 18 18 18 18
24 26 28 29 29 30 30 30 30 29 28 28 27 25 24 23 22 21 21 21 20 19 19 20 20 19 19 19 19 19 19 19 19 19 19 19 18 18 18 18 18 18 18 18 18 18 18 18 18
26 27 29 29 30 31 31 31 30 29 29 28 26 25 23 22 22 21 21 21 20 20 19 20 20 20 19 19 19 19 19 19 19 19 19 19 18 18 18 18 18 18 18 18 18 18 18 18 18
28 29 29 29 30 31 31 30 30 29 28 27 26 24 23 22 22 21 21 21 21 20 20 20 20 20 20 19 19 19 19 19 19 19 19 19 19 18 18 18 18 18 18 18 18 18 18 18 19
29 29 29 30 30 30 31 30 30 29 29 28 26 25 23 22 22 21 21 21 21 20 20 20 20 20 20 19 19 19 19 19 19 19 19 19 19 19 19 19 19 19 19 19 19 19 19 19 19
30 30 30 30 30 30 31 31 30 29 29 28 27 25 23 22 21 21 21 21 21 20 20 20 19 19 19 19 19 19 19 19 19 19 19 19 19 19 19 19 19 19 19 19 19 19 19 19 19
31 30 30 30 30 31 31 31 30 29 29 28 27 25 23 22 22 21 21 21 21 20 20 20 20 19 19 19 19 19 19 19 19 19 19 19 18 18 18 19 19 19 19 19 19 19 19 19 19
32 30 31 32 32 32 32 31 30 29 29 27 26 24 23 22 22 22 21 21 21 20 20 20 20 20 19 19 19 19 19 19 19 19 18 18 18 18 18 19 19 19 19 19 19 19 19 19 19
33 32 33 33 32 32 32 31 31 30 29 27 25 24 23 23 22 22 22 22 21 21 21 20 20 20 20 19 19 19 19 19 19 19 18 19 19 18 19 19 19 19 19 19 19 19 18 18 18
33 34 33 33 32 32 32 31 31 30 29 27 26 24 24 23 23 23 22 22 22 21 21 21 20 20 20 19 19 19 19 19 19 19 19 19 19 19 18 18 18 18 18 19 19 19 19 19 19
33 34 33 33 32 32 32 31 30 29 28 27 26 25 24 24 24 23 23 22 22 21 21 20 20 20 20 19 19 19 19 19 19 19 19 19 19 19 19 19 19 19 19 19 19 19 19 19 19
33 34 33 33 33 32 32 30 30 29 28 27 26 25 25 24 24 23 23 22 22 21 21 20 20 20 20 19 19 19 19 19 19 19 19 19 19 19 19 19 19 19 19 19 19 19 19 19 19
33 33 32 33 33 32 31 30 30 29 28 27 27 26 25 25 24 23 23 22 21 21 21 20 20 20 20 19 19 19 19 19 19 19 19 19 19 19 19 19 19 19 19 19 19 19 19 19 19
33 32 31 32 33 33 31 29 30 29 28 28 27 27 26 25 24 24 23 22 21 21 20 20 20 20 20 19 19 19 19 19 19 19 19 19 19 19 19 19 19 19 19 19 19 19 19 19 19
32 31 31 32 34 33 32 30 30 30 29 29 28 27 26 25 25 24 23 22 22 21 20 20 20 20 20 20 19 19 19 19 19 19 19 19 19 19 19 19 19 19 19 19 19 19 19 19 19
31 31 32 32 34 33 32 31 31 31 30 30 28 27 26 26 25 24 23 22 22 21 20 20 20 20 20 19 19 19 19 19 19 19 19 19 19 19 19 19 19 19 19 19 19 19 19 19 19
32 32 32 33 34 33 32 31 31 31 31 30 29 28 27 26 25 24 24 23 22 21 20 20 20 20 20 19 19 19 19 19 19 19 19 19 19 19 19 19 19 19 19 19 19 19 19 19 19
33 32 32 32 33 33 32 31 32 32 31 30 30 29 28 27 26 25 24 23 22 21 20 20 20 20 20 20 20 19 20 20 20 20 19 19 19 19 19 19 19 19 19 19 19 19 19 19 19
33 33 32 32 33 33 32 31 31 31 31 31 30 29 28 27 26 25 24 23 22 22 21 21 20 20 20 20 20 20 20 20 20 20 20 19 19 19 19 19 19 19 19 19 19 19 19 19 19
33 34 34 33 32 32 32 29 30 30 30 30 30 30 29 28 27 25 24 24 23 22 21 21 21 20 20 20 20 20 20 20 20 20 20 20 19 19 19 19 19 19 19 19 19 19 19 19 19
33 34 34 33 32 32 32 30 29 30 29 29 30 30 29 28 27 26 25 24 24 23 22 21 21 20 20 20 20 20 20 20 20 20 20 20 19 19 19 19 19 19 19 19 19 19 19 19 19
34 33 33 32 32 31 32 31 29 29 29 29 30 30 29 29 27 26 25 24 24 23 22 21 21 21 20 20 20 20 20 20 20 20 20 20 19 19 19 19 19 19 19 19 19 19 19 19 19
34 32 30 30 30 30 32 31 30 30 31 31 31 30 29 28 27 26 25 24 24 24 23 22 21 21 21 20 20 20 20 20 20 20 19 19 19 19 19 19 19 19 19 19 19 19 19 19 19
33 32 30 29 29 30 31 30 30 31 31 31 30 30 29 28 27 26 25 25 24 24 23 22 22 21 21 20 20 20 20 20 19 19 19 19 19 19 19 19 19 19 19 18 18 18 18 18 18
33 33 33 31 31 30 30 30 31 31 31 31 31 30 29 28 27 26 25 24 24 23 23 22 22 21 21 20 20 20 20 20 19 19 19 19 19 19 19 19 19 19 19 18 18 18 18 18 18
34 33 32 31 29 29 29 29 29 30 30 30 30 29 28 28 27 26 25 24 23 23 22 22 21 21 21 20 20 20 20 20 20 19 19 19 19 19 19 19 19 18 18 18 18 18 18 18 18
33 33 32 32 31 29 29 29 31 30 30 30 30 28 28 27 26 26 25 24 24 23 22 22 21 21 20 20 20 20 19 19 19 19 19 19 19 19 19 19 18 18 18 18 18 18 18 18 18
33 33 32 31 30 30 30 29 31 30 30 30 29 28 27 26 26 25 25 24 23 23 22 22 21 21 20 20 20 20 19 19 19 19 19 19 19 18 18 18 18 18 18 18 18 18 17 17 17
Wind_Speed
9 11 9 6 3 2 11 13 14 13 13 14 14 14 16 15 11 12 10 14 16 16 16 16 16 15 15 15 15 14 14 15 14 14 14 14 14 13 13 13 13 13 12 11 10 10 10 9 9
9 11 7 4 1 7 12 13 14 13 12 12 14 16 17 16 15 12 12 14 15 16 15 16 16 15 15 15 14 14 14 13 14 13 13 13 13 12 12 12 12 12 11 10 9 9 8 8 7
11 12 5 3 5 10 12 12 12 12 11 12 13 13 11 11 12 11 13 15 15 15 16 16 16 16 15 14 14 13 13 12 13 13 12 12 12 12 12 12 11 11 10 9 8 8 7 7 6
7 6 4 3 10 13 14 12 11 11 11 11 12 11 11 11 12 14 15 15 16 16 17 16 16 15 14 14 13 13 12 12 12 11 11 11 11 11 11 11 10 9 9 8 8 7 6 6 5
8 4 3 8 11 11 12 12 11 11 11 13 15 14 13 12 15 16 14 14 16 16 16 15 15 15 14 13 13 12 11 11 10 10 10 10 10 9 9 9 8 8 7 7 6 6 5 4 4
5 3 4 8 10 11 12 12 13 12 12 14 15 15 11 13 14 14 13 13 14 16 15 15 15 14 14 13 12 11 10 10 9 9 9 8 8 8 8 7 7 6 6 5 5 4 4 3 3
5 1 5 9 10 11 11 11 13 11 11 11 12 12 10 12 13 13 12 12 12 14 14 14 14 13 13 12 12 11 10 9 9 8 7 7 7 7 7 6 6 5 5 4 4 4 4 3 3
2 3 5 8 9 10 11 12 12 12 11 11 10 10 11 13 13 13 12 11 10 10 11 12 13 13 13 12 11 11 10 9 8 7 7 7 7 7 7 6 5 5 4 4 4 4 4 4 5
1 4 6 9 8 9 11 11 12 11 11 11 13 15 17 17 16 14 12 10 9 9 9 9 10 11 12 12 12 11 10 9 8 7 7 7 6 8 7 6 6 6 5 5 5 6 6 6 7
3 5 7 7 9 9 10 11 11 9 12 15 17 17 18 17 15 14 13 12 11 10 9 8 8 8 9 9 10 9 9 9 7 6 6 5 4 5 6 8 7 6 6 6 8 8 8 9 8
4 6 8 8 9 9 9 10 10 10 11 13 17 18 17 15 14 13 12 12 12 11 9 8 7 6 6 6 7 5 6 7 6 4 5 4 3 4 5 6 6 6 7 6 6 8 7 6 5
4 6 7 8 9 8 8 10 10 10 12 14 16 17 16 15 13 12 12 12 12 11 9 8 7 5 4 4 4 5 4 4 4 4 2 3 1 1 2 2 3 3 3 3 2 3 4 2 2
4 5 6 8 8 8 9 10 10 12 12 15 16 15 14 14 12 11 10 11 11 10 9 9 7 5 4 3 1 4 3 3 5 5 2 1 1 1 1 1 1 1 2 2 1 1 1 2 3
2 3 5 7 7 8 10 9 8 10 10 14 15 14 14 13 13 12 11 10 10 10 9 8 8 6 4 3 2 1 3 3 3 5 4 2 1 1 0 0 0 1 1 1 1 1 2 2 2
3 3 3 5 6 7 9 7 9 10 11 12 14 13 14 13 13 12 11 11 11 9 9 9 8 8 5 4 4 3 3 4 3 4 5 3 2 1 1 1 1 2 3 2 2 3 2 2 2
6 4 4 5 5 6 5 5 8 12 12 12 13 13 13 13 13 13 12 11 11 10 9 8 8 9 6 4 2 2 3 3 3 3 4 5 4 3 3 2 1 2 3 2 1 2 2 1 2
6 4 4 4 6 6 5 8 10 12 12 12 12 12 12 13 13 13 13 12 11 10 9 8 6 8 7 5 3 2 2 2 2 3 3 4 4 5 4 2 1 2 1 2 2 1 1 2 2
3 2 4 3 3 4 4 8 11 12 12 13 13 13 13 14 13 13 13 13 12 10 9 8 7 7 6 5 4 3 3 3 3 3 3 4 4 5 4 3 2 2 1 1 1 2 3 3 3
5 5 4 3 2 3 3 6 9 10 9 12 13 13 13 13 14 14 13 14 13 11 10 9 8 7 6 4 4 4 4 4 4 4 5 4 4 4 2 3 1 2 1 1 2 2 4 3 3
7 6 4 3 2 3 3 4 7 8 10 10 12 13 14 13 14 14 14 14 14 12 10 9 9 9 7 6 4 4 4 4 3 2 3 4 4 4 4 3 3 2 2 2 2 2 3 3 3
9 7 4 4 4 6 5 4 6 8 6 9 11 12 14 14 15 15 14 14 13 13 12 11 9 9 8 7 5 4 3 2 2 3 3 4 4 4 3 3 4 3 3 2 3 2 3 3 3
8 7 6 6 6 5 4 3 5 7 6 7 9 10 10 13 15 15 15 14 14 14 13 10 10 9 8 7 6 6 5 4 3 3 3 3 3 3 3 3 3 3 3 3 3 2 3 3 3
7 8 9 9 10 9 5 4 4 6 5 7 8 9 10 12 13 14 14 13 13 14 13 12 10 9 8 8 6 5 4 3 2 2 3 3 3 3 3 3 3 3 3 2 2 2 2 2 3
6 7 9 9 10 10 6 4 3 5 6 8 9 9 9 11 13 12 11 10 10 11 11 12 11 9 8 8 7 6 5 3 2 2 2 3 3 3 3 4 3 3 3 2 2 3 3 3 4
8 7 6 7 7 6 3 2 2 4 5 5 6 8 9 9 11 12 12 11 10 11 10 10 10 10 9 9 7 6 6 5 4 4 3 4 3 3 3 3 2 2 3 3 3 3 4 3 4
8 9 7 7 6 5 3 1 3 6 6 5 5 7 9 9 10 11 12 10 10 11 10 10 10 9 8 7 6 5 5 4 3 4 3 3 3 2 2 2 2 2 3 4 3 3 4 3 4
10 9 9 9 10 8 3 1 3 7 7 5 5 6 7 9 11 11 12 10 9 9 9 10 8 8 8 7 6 5 4 4 3 2 3 2 2 2 1 1 2 2 3 3 3 3 4 3 3
12 9 7 8 7 7 6 3 3 5 6 6 6 6 4 6 8 9 10 10 9 8 7 8 8 9 8 7 6 6 4 4 3 2 2 2 2 1 0 1 2 2 3 3 4 4 3 3 3
11 10 9 8 8 9 7 2 4 6 4 5 7 6 6 6 5 6 7 8 9 9 9 8 8 8 8 7 6 5 5 4 3 2 2 2 2 1 1 2 2 2 3 3 3 4 4 4 4
11 12 11 10 9 9 9 2 3 6 5 5 7 8 7 6 6 6 8 7 6 7 8 7 7 8 7 6 6 5 5 4 4 3 2 2 2 2 2 2 2 3 3 3 3 4 4 3 3
Wind_Direction
229 234 234 250 248 95 68 68 71 69 67 60 57 69 65 58 74 99 117 112 114 115 115 109 104 103 102 100 100 101 100 101 99 97 97 98 99 101 104 105 103 103 103 101 100 98 97 100 100
248 244 239 246 261 81 74 71 71 72 82 84 72 72 72 70 85 105 114 116 117 117 114 109 108 106 104 102 100 100 101 101 99 99 98 98 99 101 105 105 106 106 106 105 103 101 100 103 105
256 257 259 240 63 81 82 80 82 83 86 86 79 66 67 84 94 111 121 124 116 112 109 111 112 109 107 105 104 103 101 102 102 101 100 100 100 100 101 104 107 109 110 110 108 106 105 106 109
256 249 235 67 68 77 92 96 95 93 88 90 89 80 77 87 108 119 125 123 116 116 114 115 115 112 111 110 108 107 105 104 105 103 102 102 103 104 104 105 107 109 111 114 117 118 113 110 111
243 265 95 76 77 79 86 95 92 90 88 89 90 92 89 95 110 119 125 123 120 117 116 119 119 117 116 113 111 110 109 108 107 107 105 104 106 108 109 109 110 112 114 117 123 125 122 120 125
259 261 84 86 84 85 81 87 90 88 97 100 99 100 100 112 115 119 121 121 119 119 119 123 126 123 120 118 117 115 116 114 113 113 113 112 113 114 116 117 118 121 123 125 129 135 141 146 157
260 16 80 90 86 86 90 92 94 97 98 101 107 104 113 120 121 123 123 117 117 122 128 131 133 131 128 126 125 124 123 124 124 124 125 125 129 132 131 129 129 132 136 140 149 160 170 178 193
233 95 92 91 86 86 88 86 91 97 94 106 114 114 131 132 130 124 117 115 116 122 128 135 140 140 142 139 139 137 136 138 139 143 149 148 151 154 153 148 146 150 158 166 176 186 197 206 218
170 98 82 90 93 96 97 96 93 96 98 89 92 113 130 137 135 132 130 128 129 128 133 136 139 146 149 147 145 151 152 155 158 167 176 172 172 164 161 145 154 170 183 192 203 211 215 221 229
98 95 91 94 103 101 102 104 109 104 97 95 99 111 127 138 142 145 145 145 146 143 139 141 142 146 148 141 144 159 157 155 168 157 165 177 182 153 138 151 173 190 202 209 219 227 229 230 226
83 87 96 95 98 103 107 106 108 108 110 119 124 131 140 144 150 153 154 153 147 143 145 147 138 131 128 127 139 140 140 146 157 148 157 158 147 145 147 159 179 201 210 218 214 220 230 229 221
84 81 92 100 98 102 98 93 90 93 108 124 132 140 145 151 155 156 155 150 142 144 149 139 135 121 108 113 132 144 138 145 143 141 162 136 119 148 137 152 163 187 204 211 213 215 227 243 261
79 95 96 104 113 107 103 93 91 97 111 124 134 143 152 156 153 152 146 140 141 145 144 133 125 119 115 111 135 131 128 141 138 141 139 122 121 101 117 111 99 239 214 199 243 257 221 227 242
130 109 112 115 114 117 110 107 106 110 121 132 140 150 157 158 156 149 148 147 146 149 145 140 142 135 134 152 153 149 147 146 141 148 151 185 147 82 10 140 7 311 293 253 268 279 265 259 258
185 136 126 137 137 127 116 113 126 133 140 144 147 156 158 161 159 157 159 157 154 152 150 152 158 150 155 173 183 168 178 165 155 149 159 180 170 201 247 214 230 271 273 242 238 264 263 257 254
217 193 172 177 161 148 147 133 145 150 153 152 154 157 161 164 165 164 165 162 157 157 155 168 170 153 159 178 192 178 181 162 160 160 171 173 179 218 247 232 220 246 259 242 245 265 279 280 274
239 225 193 183 185 156 156 148 162 166 161 158 158 161 165 168 171 166 167 165 161 159 158 166 162 152 164 174 192 206 171 162 185 188 186 181 196 217 229 239 235 243 250 270 290 3 316 283 282
280 268 232 205 181 170 161 150 161 176 166 161 164 166 169 174 176 170 170 165 161 159 160 166 167 160 166 175 184 202 189 195 206 198 186 201 208 225 239 229 215 237 243 274 308 311 286 276 268
275 273 280 272 178 225 177 165 170 178 175 166 168 171 173 177 172 169 172 168 165 164 164 169 175 167 174 184 194 196 197 207 211 192 180 195 221 223 229 268 226 231 232 279 290 284 280 273 264
256 258 260 258 240 250 207 186 184 190 189 178 176 173 175 176 170 168 173 173 171 168 168 172 177 176 185 189 195 203 202 209 207 183 165 200 221 234 219 225 253 240 223 240 255 264 282 291 294
262 261 264 248 239 237 224 208 190 188 203 183 183 177 176 174 173 170 176 177 174 173 175 179 180 181 190 188 193 213 198 217 203 185 186 204 217 233 245 205 230 246 236 224 234 248 259 272 286
273 289 286 273 269 266 249 243 196 186 201 201 181 176 176 174 173 173 178 180 179 177 177 175 176 182 185 190 202 208 206 215 209 195 183 191 208 223 227 230 230 245 250 241 248 216 252 254 272
283 298 293 289 278 271 249 252 184 168 188 210 199 181 178 174 170 171 177 179 179 176 176 174 175 179 183 193 202 214 221 221 212 191 178 200 205 222 229 217 224 233 249 252 274 289 280 275 275
262 277 282 280 273 264 256 252 185 163 179 198 189 175 174 167 161 159 163 167 170 171 172 170 171 179 183 191 199 210 220 228 230 218 201 226 212 220 227 218 214 228 244 250 254 257 260 263 281
247 264 271 265 255 258 279 263 180 153 145 168 155 156 158 157 157 156 156 161 170 171 170 165 168 178 185 190 193 201 208 212 223 235 222 236 231 221 229 232 197 231 245 247 252 247 258 256 261
254 260 263 277 280 284 264 265 132 119 114 111 131 135 143 149 152 159 158 159 167 169 164 163 165 174 179 184 188 194 200 208 219 233 246 238 259 242 205 218 207 232 255 255 243 251 252 244 247
253 256 269 279 279 284 284 204 143 124 122 123 111 116 141 147 150 153 153 155 160 162 158 157 158 166 173 180 174 177 189 205 214 216 233 251 262 256 198 209 225 226 243 259 263 261 268 266 256
253 270 278 277 281 282 274 241 169 139 139 134 128 129 137 135 147 149 150 152 154 161 152 149 157 161 163 168 177 179 181 193 208 216 210 247 262 286 297 240 236 237 237 243 248 257 263 262 261
237 246 258 272 279 287 285 269 173 167 153 137 129 132 129 124 132 137 139 147 157 159 159 156 151 152 163 170 173 172 175 188 198 209 225 240 267 275 261 267 262 257 258 256 254 258 263 263 269
257 258 257 262 267 272 279 261 111 136 147 130 112 109 119 126 134 134 136 139 142 149 152 154 156 163 166 167 170 179 175 181 194 204 224 237 248 260 264 262 267 275 280 279 271 273 278 271 271
Height
1488 1488 1488 1491 1490 1489 1489 1483 1480 1483 1486 1490 1490 1492 1498 1501 1508 1521 1523 1523 1524 1525 1526 1528 1529 1530 1531 1532 1533 1534 1535 1536 1537 1538 1539 1540 1541 1542 1543 1544 1545 1546 1547 1548 1549 1550 1551 1552 1553
1487 1489 1492 1490 1489 1497 1494 1485 1486 1487 1490 1492 1494 1497 1501 1507 1513 1519 1522 1524 1526 1527 1528 1530 1531 1532 1533 1534 1535 1536 1537 1538 1539 1540 1541 1542 1543 1544 1545 1546 1547 1548 1549 1550 1551 1552 1553 1554 1554
1487 1490 1491 1485 1486 1492 1493 1487 1487 1489 1491 1493 1497 1502 1507 1513 1517 1520 1524 1526 1527 1529 1530 1531 1533 1534 1535 1536 1537 1538 1539 1540 1541 1542 1543 1544 1545 1546 1547 1548 1549 1549 1550 1551 1552 1553 1554 1555 1556
1489 1489 1487 1485 1488 1482 1483 1485 1487 1490 1493 1495 1499 1506 1512 1517 1519 1522 1525 1527 1529 1531 1531 1533 1534 1536 1537 1538 1539 1540 1541 1542 1543 1544 1545 1546 1547 1547 1548 1549 1550 1551 1552 1552 1553 1554 1555 1556 1557
1490 1488 1486 1489 1487 1482 1481 1484 1487 1491 1494 1498 1502 1510 1516 1520 1522 1524 1527 1529 1531 1533 1533 1535 1536 1537 1539 1540 1541 1542 1543 1544 1545 1546 1547 1548 1548 1549 1550 1551 1551 1552 1553 1553 1554 1555 1556 1557 1557
1489 1484 1490 1495 1489 1483 1483 1486 1489 1493 1497 1501 1505 1512 1519 1522 1524 1526 1529 1531 1533 1534 1535 1536 1538 1539 1541 1542 1543 1544 1545 1546 1547 1548 1549 1549 1550 1551 1551 1552 1553 1553 1554 1554 1555 1556 1557 1557 1558
1488 1485 1490 1490 1490 1487 1486 1488 1490 1494 1498 1501 1506 1512 1520 1523 1526 1528 1530 1532 1534 1536 1537 1538 1540 1541 1542 1544 1545 1546 1547 1547 1548 1549 1550 1551 1551 1552 1553 1554 1554 1554 1555 1555 1556 1557 1557 1558 1559
1484 1484 1489 1489 1491 1491 1487 1490 1493 1496 1499 1503 1506 1512 1520 1524 1526 1529 1531 1533 1535 1537 1539 1540 1541 1542 1544 1545 1546 1547 1548 1549 1550 1551 1552 1552 1553 1553 1554 1555 1555 1556 1556 1556 1557 1558 1558 1559 1560
1481 1487 1492 1490 1490 1489 1488 1491 1495 1498 1500 1503 1506 1511 1518 1523 1527 1529 1532 1534 1536 1538 1540 1542 1543 1544 1545 1546 1548 1548 1549 1550 1551 1552 1553 1553 1554 1555 1555 1556 1556 1557 1557 1557 1558 1558 1559 1560 1560
1481 1489 1488 1483 1485 1486 1488 1491 1495 1498 1502 1507 1511 1516 1520 1524 1527 1529 1531 1533 1536 1538 1540 1542 1544 1546 1547 1549 1549 1550 1551 1551 1552 1553 1554 1554 1555 1556 1557 1557 1557 1558 1558 1558 1559 1559 1559 1560 1560
1480 1483 1482 1483 1484 1487 1489 1491 1494 1498 1503 1508 1513 1517 1521 1524 1527 1529 1531 1533 1535 1538 1540 1542 1544 1546 1548 1549 1550 1551 1552 1553 1554 1554 1555 1556 1557 1557 1558 1558 1558 1558 1558 1559 1559 1559 1559 1560 1561
1481 1480 1481 1483 1486 1488 1489 1492 1496 1499 1504 1509 1513 1517 1521 1524 1526 1528 1531 1533 1535 1538 1541 1543 1545 1546 1548 1549 1551 1552 1553 1554 1555 1555 1556 1557 1557 1558 1558 1559 1559 1559 1559 1559 1560 1560 1560 1560 1561
1482 1482 1483 1484 1486 1489 1491 1495 1498 1502 1506 1510 1514 1518 1521 1524 1526 1529 1531 1533 1535 1538 1541 1543 1544 1546 1548 1549 1551 1552 1553 1554 1555 1555 1556 1557 1557 1558 1559 1559 1559 1560 1560 1560 1560 1560 1560 1560 1560
1484 1483 1484 1485 1487 1489 1492 1497 1500 1504 1508 1511 1514 1518 1521 1523 1526 1529 1531 1533 1536 1538 1541 1542 1544 1546 1547 1549 1550 1552 1553 1554 1555 1555 1556 1557 1557 1558 1558 1559 1559 1559 1560 1560 1560 1560 1560 1560 1560
1484 1484 1486 1485 1486 1488 1492 1499 1500 1504 1506 1510 1513 1517 1520 1523 1526 1528 1531 1533 1535 1538 1540 1542 1544 1546 1547 1549 1550 1552 1553 1554 1555 1555 1556 1556 1557 1558 1558 1559 1559 1559 1559 1559 1559 1559 1560 1559 1559
1483 1487 1495 1486 1484 1486 1494 1506 1500 1503 1505 1508 1512 1516 1519 1522 1525 1528 1530 1533 1535 1537 1540 1542 1544 1545 1546 1548 1550 1552 1553 1554 1554 1555 1556 1556 1556 1557 1557 1558 1558 1559 1559 1559 1559 1559 1559 1559 1559
1486 1494 1493 1486 1480 1482 1489 1499 1498 1500 1502 1506 1510 1514 1517 1521 1524 1527 1529 1532 1534 1536 1539 1541 1543 1545 1546 1548 1549 1551 1552 1553 1554 1555 1555 1556 1556 1556 1557 1557 1557 1558 1558 1558 1558 1558 1558 1558 1557
1496 1494 1490 1487 1479 1480 1487 1491 1493 1495 1498 1502 1507 1511 1515 1519 1522 1525 1528 1531 1533 1536 1538 1540 1542 1544 1545 1547 1549 1550 1552 1552 1553 1554 1554 1555 1555 1555 1556 1556 1556 1557 1557 1557 1557 1557 1557 1557 1557
1485 1488 1490 1482 1476 1480 1485 1488 1488 1491 1494 1498 1503 1507 1512 1516 1520 1523 1527 1529 1532 1534 1536 1538 1540 1542 1544 1546 1547 1549 1550 1552 1553 1553 1553 1554 1554 1555 1555 1555 1555 1556 1556 1556 1556 1556 1556 1556 1556
1482 1487 1487 1481 1476 1480 1483 1487 1485 1488 1491 1495 1499 1504 1508 1513 1517 1521 1524 1527 1530 1532 1534 1537 1539 1540 1542 1544 1546 1548 1549 1550 1552 1552 1553 1553 1553 1554 1554 1553 1554 1554 1555 1555 1555 1555 1555 1555 1555
1481 1483 1483 1484 1478 1477 1483 1491 1488 1488 1490 1492 1495 1499 1504 1509 1514 1518 1521 1525 1528 1530 1532 1534 1536 1538 1541 1543 1545 1547 1548 1549 1550 1551 1551 1552 1552 1552 1552 1552 1552 1553 1553 1554 1554 1553 1553 1553 1553
1485 1474 1475 1479 1485 1487 1484 1504 1494 1488 1490 1490 1492 1496 1500 1505 1509 1514 1518 1522 1525 1527 1530 1532 1534 1536 1539 1541 1543 1545 1546 1548 1549 1549 1550 1550 1550 1550 1550 1551 1551 1551 1552 1552 1552 1552 1552 1552 1552
1478 1473 1475 1477 1483 1487 1485 1497 1498 1488 1494 1492 1491 1494 1497 1501 1506 1510 1515 1518 1522 1525 1528 1530 1532 1534 1537 1539 1541 1543 1545 1546 1547 1548 1548 1549 1549 1549 1549 1549 1549 1549 1550 1550 1550 1550 1550 1550 1550
1472 1476 1478 1480 1484 1499 1487 1495 1502 1490 1489 1488 1488 1492 1495 1498 1503 1507 1512 1515 1519 1523 1526 1528 1530 1532 1534 1536 1539 1540 1542 1544 1545 1545 1546 1547 1548 1547 1547 1547 1546 1547 1548 1548 1548 1548 1548 1548 1548
1473 1487 1504 1508 1506 1501 1482 1490 1494 1481 1480 1482 1485 1489 1493 1497 1501 1505 1509 1513 1517 1520 1523 1526 1527 1529 1532 1534 1536 1537 1539 1541 1542 1543 1544 1545 1546 1545 1545 1545 1544 1545 1545 1546 1546 1546 1546 1546 1545
1475 1482 1504 1516 1514 1500 1487 1495 1487 1478 1480 1481 1485 1488 1492 1496 1501 1504 1507 1511 1515 1518 1520 1523 1525 1527 1529 1531 1533 1535 1536 1538 1540 1541 1542 1542 1543 1543 1543 1543 1543 1543 1543 1544 1544 1543 1543 1543 1543
1475 1477 1475 1488 1494 1502 1495 1490 1483 1477 1480 1482 1485 1488 1492 1494 1499 1503 1506 1510 1513 1516 1518 1520 1522 1524 1526 1528 1531 1532 1534 1536 1537 1538 1539 1540 1540 1541 1541 1540 1540 1540 1541 1541 1541 1541 1541 1541 1540
1467 1471 1480 1491 1507 1512 1502 1497 1494 1485 1483 1483 1486 1489 1493 1496 1498 1501 1505 1509 1513 1515 1517 1519 1520 1522 1524 1526 1528 1530 1531 1533 1534 1536 1536 1537 1537 1538 1538 1538 1538 1538 1538 1538 1538 1538 1539 1538 1538
1469 1473 1477 1481 1487 1505 1511 1502 1477 1480 1481 1482 1485 1490 1493 1496 1499 1502 1505 1509 1511 1514 1517 1518 1519 1521 1523 1524 1526 1528 1529 1531 1532 1533 1534 1534 1534 1535 1535 1535 1535 1535 1535 1535 1536 1536 1536 1536 1535
1464 1468 1473 1489 1492 1490 1497 1498 1474 1477 1481 1482 1486 1492 1494 1497 1500 1502 1505 1509 1511 1514 1515 1516 1518 1519 1521 1522 1524 1526 1527 1529 1530 1530 1531 1531 1532 1532 1533 1533 1532 1532 1533 1533 1533 1533 1533 1533 1533